{"data":{"norad_id":62960,"epoch":"2026-05-24T15:35:36.382560Z","epoch_age_seconds":101390,"freshness":"FRESH","line1":"1 62960U 25029N   26144.64972665  .00022959  00000+0  78472-3 0  9990","line2":"2 62960  53.1609 239.8971 0000719  82.6677 277.4405 15.30206731 72928","mean_motion":15.30206731,"eccentricity":7.19e-5,"inclination_deg":53.1609,"raan_deg":239.8971,"arg_perigee_deg":82.6677,"mean_anomaly_deg":277.4405,"bstar":0.00078472,"rev_number":7292,"period_min":94.104931760361,"perigee_km":474.70221737148,"apogee_km":475.68772650905,"semimajor_km":6853.3319719403,"source":"CELESTRAK","updated_at":"2026-05-25T13:38:19.826784Z"}}